1505898000.97,59331,15.38,73368.3,3.43,-4.41,-8.85,0,*70
1505898002.15,59332,15.38,73368.8,3.43,-4.17,-8.41,0,*78
1505898003.34,59333,15.38,73368.0,3.43,-4.33,-8.55,0,*7A
1505898004.55,59334,15.38,73366.5,3.45,-4.29,-8.29,0,*7B
1505898005.77,59335,15.38,73364.3,3.45,-4.29,-8.17,0,*77
1505898006.99,59336,15.38,73364.3,3.45,-4.17,-7.83,0,*7B
1505898008.23,59337,15.38,73366.0,3.45,-4.05,-7.31,0,*70
1505898009.47,59338,15.44,73368.0,3.49,-4.13,-7.05,0,*73
1505898010.7,59339,15.38,73366.8,3.49,-4.45,-7.05,0,*71
1505898011.9,59340,15.38,73364.8,3.51,-4.21,-6.47,0,*73
1505898013.09,59341,15.38,73366.0,3.51,-3.95,-6.01,0,*78
1505898014.32,59342,15.38,73366.0,3.51,-3.83,-5.69,0,*71
1505898015.6,59343,15.38,73368.5,3.53,-3.63,-5.31,0,*71
1505898016.85,59344,15.38,73368.3,3.53,-3.59,-4.99,0,*7C
1505898018.12,59345,15.38,73368.5,3.53,-3.47,-4.85,0,*7F
1505898019.32,59346,15.38,73368.5,3.55,-3.39,-4.61,0,*79
1505898020.54,59347,15.38,73366.3,3.53,-3.07,-4.21,0,*77
1505898021.76,59348,15.38,73366.3,3.53,-2.87,-3.83,0,*7E
1505898022.98,59349,15.44,73368.3,3.53,-3.07,-3.83,0,*76
1505898024.17,59350,15.38,73366.0,3.55,-2.87,-3.35,0,*7C
1505898025.4,59351,15.38,73368.0,3.53,-3.07,-3.55,0,*74
1505898026.64,59352,15.38,73366.8,3.53,-3.31,-3.71,0,*74
1505898027.87,59353,15.38,73366.5,3.55,-3.43,-3.71,0,*76
1505898029.07,59354,15.38,73362.8,3.55,-3.15,-3.39,0,*7E
1505898030.3,59355,15.38,73364.5,3.53,-3.23,-3.43,0,*71
1505898031.52,59356,15.38,73368.3,3.53,-3.07,-3.11,0,*73
1505898032.74,59357,15.44,73368.3,3.53,-3.19,-2.99,0,*7C
1505898033.93,59358,15.38,73366.3,3.51,-3.23,-3.07,0,*7E
1505898035.15,59359,15.38,73366.3,3.51,-3.07,-2.75,0,*7D
1505898036.34,59360,15.38,73366.8,3.51,-3.19,-2.87,0,*75
1505898037.54,59361,15.38,73368.0,3.51,-3.35,-2.95,0,*79
1505898038.77,59362,15.38,73368.5,3.53,-2.87,-2.31,0,*7E
1505898039.99,59363,15.38,73366.3,3.53,-2.87,-2.31,0,*7F
1505898041.21,59364,15.38,73366.3,3.53,-2.99,-2.35,0,*73
1505898042.41,59365,15.38,73364.5,3.51,-2.99,-2.31,0,*74
1505898043.6,59366,15.38,73370.0,3.55,-3.03,-2.31,0,*71
1505898044.79,59367,15.38,73368.0,3.55,-3.07,-2.43,0,*71
1505898046.02,59368,15.38,73366.3,3.55,-3.31,-2.71,0,*7A
1505898047.21,59369,15.38,73364.5,3.55,-3.07,-2.43,0,*7F
1505898048.4,59370,15.38,73370.3,3.55,-2.91,-2.31,0,*7C
1505898049.59,59371,15.38,73368.3,3.55,-2.83,-2.27,0,*79
1505898050.81,59372,15.38,73366.8,3.57,-2.79,-2.31,0,*7A
1505898052.03,59373,15.44,73368.8,3.57,-2.79,-2.39,0,*73
1505898053.27,59374,15.38,73368.0,3.57,-2.55,-2.27,0,*75
1505898054.48,59375,15.38,73368.5,3.59,-2.51,-2.15,0,*7F
1505898055.72,59376,15.38,73366.5,3.61,-2.35,-2.11,0,*71
1505898056.96,59377,15.38,73364.5,3.61,-2.59,-2.35,0,*7C
1505898058.17,59378,15.38,73368.8,3.63,-2.87,-2.63,0,*71
1505898059.41,59379,15.38,73370.5,3.61,-2.75,-2.43,0,*7D
1505898060.63,59380,15.38,73364.0,3.63,-2.55,-2.35,0,*7A
1505898061.84,59381,15.38,73368.8,3.63,-2.63,-2.35,0,*7E
1505898063.05,59382,15.38,73368.5,3.63,-2.75,-2.43,0,*7B
1505898064.28,59383,15.38,73364.5,3.65,-2.83,-2.51,0,*76
1505898065.49,59384,15.38,73364.5,3.65,-2.91,-2.59,0,*7A
1505898066.71,59385,15.38,73364.8,3.65,-3.03,-2.67,0,*7C
1505898067.93,59386,15.38,73368.5,3.67,-3.39,-2.83,0,*7E
1505898069.18,59387,15.38,73366.3,3.67,-3.19,-2.71,0,*70
1505898070.42,59388,15.38,73364.5,3.67,-3.43,-2.91,0,*7E
1505898071.66,59389,15.38,73366.0,3.71,-3.43,-2.87,0,*7F
1505898072.88,59390,15.38,73368.3,3.73,-3.31,-2.59,0,*73
1505898074.07,59391,15.38,73368.8,3.73,-3.07,-2.31,0,*79
1505898075.29,59392,15.38,73370.0,3.73,-2.87,-1.99,0,*72
1505898076.48,59393,15.38,73364.8,3.73,-3.23,-2.35,0,*79
1505898077.7,59394,15.38,73364.5,3.73,-3.63,-2.95,0,*70
1505898078.92,59395,15.38,73364.5,3.75,-3.87,-2.99,0,*71
1505898080.16,59396,15.38,73368.0,3.77,-3.59,-2.71,0,*75
1505898081.38,59397,15.38,73366.5,3.79,-3.79,-2.79,0,*70
1505898082.65,59398,15.38,73366.3,3.79,-3.47,-2.47,0,*7F
1505898083.92,59399,15.38,73366.8,3.79,-3.67,-2.71,0,*79
1505898085.12,59400,15.38,73366.3,3.77,-3.95,-2.95,0,*77
1505898086.33,59401,15.38,73364.3,3.79,-4.13,-3.07,0,*7B
1505898087.53,59402,15.38,73364.5,3.77,-4.45,-3.43,0,*75
1505898088.77,59403,15.38,73368.5,3.77,-3.59,-2.47,0,*7B
1505898090.01,59404,15.38,73364.3,3.75,-3.31,-2.03,0,*70
1505898091.23,59405,15.38,73364.0,3.77,-3.43,-2.19,0,*7D
1505898092.47,59406,15.38,73366.0,3.79,-3.43,-2.15,0,*7C
1505898093.72,59407,15.38,73364.8,3.79,-3.79,-2.67,0,*71
1505898094.92,59408,15.38,73364.5,3.79,-4.37,-3.19,0,*7B
1505898096.17,59409,15.38,73368.5,3.79,-4.81,-3.47,0,*7C
1505898097.42,59410,15.38,73366.5,3.79,-4.69,-3.43,0,*76
1505898098.61,59411,15.38,73364.8,3.77,-4.33,-3.19,0,*79
1505898099.78,59412,15.38,73368.8,3.77,-4.49,-3.23,0,*7E
1505898101.03,59413,15.38,73364.5,3.75,-4.77,-3.51,0,*75
1505898102.24,59414,15.38,73368.5,3.77,-4.73,-3.35,0,*76
1505898103.47,59415,15.38,73368.3,3.75,-4.77,-3.39,0,*7D
1505898104.69,59416,15.38,73370.8,3.75,-4.85,-3.39,0,*73
1505898105.89,59417,15.38,73366.0,3.75,-4.61,-3.23,0,*73
1505898107.09,59418,15.38,73366.8,3.73,-4.25,-2.95,0,*76
1505898108.34,59419,15.38,73368.8,3.73,-4.01,-2.75,0,*7F
1505898109.59,59420,15.38,73368.0,3.75,-3.95,-2.75,0,*79
1505898110.83,59421,15.38,73370.5,3.77,-3.71,-2.59,0,*7E
1505898112.01,59422,15.38,73368.8,3.77,-4.13,-3.07,0,*74
1505898113.2,59423,15.38,73366.5,3.77,-4.09,-3.07,0,*7E
1505898114.41,59424,15.38,73366.3,3.75,-4.09,-2.99,0,*7D
1505898115.63,59425,15.38,73366.8,3.77,-3.71,-2.83,0,*7D
1505898116.85,59426,15.38,73364.8,3.77,-3.31,-2.47,0,*72
1505898118.06,59427,15.38,73366.3,3.79,-3.19,-2.31,0,*76
1505898119.28,59428,15.38,73366.3,3.77,-3.27,-2.55,0,*78
1505898120.5,59429,15.38,73364.3,3.77,-3.35,-2.59,0,*76
1505898121.71,59430,15.38,73366.3,3.77,-3.47,-2.79,0,*79
1505898122.9,59431,15.44,73370.3,3.77,-3.19,-2.39,0,*77
1505898124.14,59432,15.38,73366.8,3.75,-3.23,-2.51,0,*71
1505898125.36,59433,15.38,73366.5,3.77,-3.27,-2.55,0,*72
1505898126.6,59434,15.38,73364.3,3.75,-3.35,-2.63,0,*71
1505898127.79,59435,15.38,73364.5,3.77,-3.15,-2.39,0,*7F
1505898129.06,59436,15.38,73366.0,3.75,-3.47,-2.71,0,*75
1505898130.3,59437,15.38,73366.0,3.77,-3.43,-2.67,0,*75
1505898131.55,59438,15.38,73364.5,3.77,-3.47,-2.71,0,*79
1505898132.76,59439,15.38,73368.8,3.77,-3.67,-2.83,0,*77
1505898133.98,59440,15.44,73372.3,3.79,-3.83,-2.91,0,*7E
1505898135.18,59441,15.38,73366.0,3.75,-4.17,-3.39,0,*7A
1505898136.42,59442,15.38,73366.8,3.75,-3.71,-2.95,0,*79
1505898137.63,59443,15.38,73368.8,3.75,-3.95,-3.23,0,*7E
1505898138.85,59444,15.38,73364.0,3.77,-3.71,-3.07,0,*77
1505898140.06,59445,15.38,73366.0,3.77,-3.47,-3.03,0,*77
1505898141.28,59446,15.38,73368.0,3.79,-3.03,-2.39,0,*72
1505898142.51,59447,15.38,73366.0,3.79,-3.07,-2.59,0,*71
1505898143.76,59448,15.44,73370.3,3.79,-2.95,-2.47,0,*7B
1505898145.0,59449,15.38,73364.3,3.79,-2.83,-2.55,0,*7E
1505898146.24,59450,15.38,73368.3,3.81,-2.75,-2.51,0,*7C
1505898147.45,59451,15.38,73366.0,3.79,-2.83,-2.79,0,*79
1505898148.69,59452,15.38,73366.8,3.81,-2.67,-2.63,0,*7C
1505898149.93,59453,15.38,73366.3,3.81,-2.63,-2.67,0,*7D
1505898151.15,59454,15.38,73366.8,3.79,-3.35,-3.35,0,*79
1505898152.36,59455,15.38,73364.5,3.79,-2.91,-2.95,0,*7C
1505898153.57,59456,15.38,73366.8,3.79,-2.79,-2.83,0,*7E
1505898154.78,59457,15.44,73370.0,3.79,-2.79,-2.91,0,*7C
1505898155.99,59458,15.38,73364.5,3.81,-2.75,-2.87,0,*7F
1505898157.26,59459,15.44,73370.5,3.83,-2.63,-2.71,0,*72
1505898158.5,59460,15.38,73364.3,3.81,-2.55,-2.63,0,*7C
1505898159.74,59461,15.38,73366.0,3.81,-2.51,-2.75,0,*7E
1505898160.95,59462,15.38,73364.8,3.81,-2.55,-2.79,0,*75
1505898162.19,59463,15.38,73368.0,3.79,-2.55,-2.79,0,*73
1505898163.43,59464,15.38,73362.3,3.79,-2.31,-2.47,0,*7B
1505898164.64,59465,15.38,73364.5,3.81,-2.39,-2.51,0,*72
1505898165.91,59466,15.38,73364.5,3.79,-1.95,-2.03,0,*74
1505898167.18,59467,15.38,73366.3,3.79,-2.03,-2.07,0,*7D
1505898168.44,59468,15.38,73364.5,3.79,-1.83,-1.95,0,*71
1505898169.7,59469,15.38,73364.0,3.79,-1.91,-2.03,0,*7F
1505898170.94,59470,15.44,73370.0,3.79,-2.31,-2.47,0,*7E
1505898172.13,59471,15.38,73362.0,3.81,-2.27,-2.43,0,*7B
1505898173.34,59472,15.38,73364.0,3.79,-2.19,-2.39,0,*7F
1505898174.55,59473,15.38,73366.8,3.79,-2.15,-2.31,0,*7A
1505898175.79,59474,15.38,73366.3,3.79,-2.43,-2.47,0,*7F
1505898177.03,59475,15.44,73370.0,3.79,-2.07,-2.27,0,*78
1505898178.27,59476,15.38,73370.0,3.79,-2.39,-2.47,0,*70
1505898179.53,59477,15.38,73364.8,3.79,-1.95,-2.07,0,*70
1505898180.77,59478,15.38,73368.3,3.79,-2.39,-2.67,0,*7C
1505898182.0,59479,15.38,73368.5,3.79,-2.59,-2.91,0,*72
1505898183.24,59480,15.38,73368.0,3.79,-2.59,-3.03,0,*7E
1505898184.44,59481,15.38,73364.8,3.79,-2.43,-2.91,0,*7E
1505898185.65,59482,15.38,73366.0,3.79,-2.43,-3.03,0,*77
1505898186.86,59483,15.44,73368.3,3.79,-2.27,-2.83,0,*7D
1505898188.09,59484,15.38,73370.0,3.79,-2.83,-3.55,0,*7E
1505898189.32,59485,15.38,73364.5,3.79,-2.59,-3.35,0,*7E
1505898190.56,59486,15.38,73366.3,3.79,-2.59,-3.27,0,*7E
1505898191.79,59487,15.38,73366.5,3.79,-3.15,-3.71,0,*75
1505898193.01,59488,15.38,73366.8,3.79,-3.27,-3.83,0,*76
1505898194.25,59489,15.44,73370.5,3.79,-3.43,-3.91,0,*76
1505898195.49,59490,15.38,73370.0,3.79,-3.55,-3.91,0,*79
1505898196.72,59491,15.38,73368.8,3.79,-3.19,-3.55,0,*78
1505898197.96,59492,15.38,73368.8,3.79,-2.71,-3.03,0,*77
1505898199.19,59493,15.38,73370.0,3.79,-2.43,-2.55,0,*75
1505898200.41,59494,15.38,73370.8,3.79,-2.15,-2.19,0,*79
1505898201.62,59495,15.38,73370.0,3.81,-2.11,-2.15,0,*77
1505898202.84,59496,15.38,73368.8,3.81,-2.11,-2.23,0,*71
1505898204.03,59497,15.38,73368.8,3.81,-2.23,-2.15,0,*74
1505898205.21,59498,15.38,73368.8,3.81,-2.27,-2.27,0,*7E
1505898206.42,59499,15.38,73368.0,3.81,-1.79,-1.91,0,*79
1505898207.61,59500,15.38,73368.0,3.85,-1.55,-1.59,0,*76
1505898208.87,59501,15.38,73366.8,3.83,-1.87,-1.99,0,*72
1505898210.08,59502,15.38,73366.0,3.85,-1.95,-2.19,0,*7F
1505898211.32,59503,15.38,73366.0,3.83,-2.07,-2.23,0,*79
1505898212.51,59504,15.38,73368.0,3.85,-2.87,-3.11,0,*70
1505898213.69,59505,15.38,73368.5,3.85,-3.11,-3.23,0,*7E
1505898214.93,59506,15.38,73368.3,3.83,-2.87,-2.75,0,*77
1505898216.17,59507,15.38,73370.3,3.83,-2.35,-1.99,0,*7E
1505898217.4,59508,15.38,73370.3,3.83,-2.19,-1.87,0,*70
1505898218.62,59509,15.38,73368.8,3.85,-2.63,-2.23,0,*77
1505898219.83,59510,15.38,73370.3,3.85,-2.35,-1.95,0,*72
1505898221.09,59511,15.44,73370.8,3.83,-2.47,-1.99,0,*7C
1505898222.34,59512,15.38,73368.0,3.83,-2.95,-2.51,0,*77
1505898223.58,59513,15.38,73372.3,3.83,-3.23,-2.75,0,*7C
1505898224.8,59514,15.38,73368.8,3.85,-2.99,-2.51,0,*7B
1505898226.06,59515,15.38,73368.0,3.83,-2.71,-2.07,0,*79
1505898227.28,59516,15.38,73368.3,3.83,-2.87,-2.31,0,*76
1505898228.55,59517,15.38,73368.5,3.83,-2.63,-1.99,0,*7C
1505898229.77,59518,15.44,73372.0,3.83,-2.39,-1.95,0,*70
1505898230.98,59519,15.38,73372.3,3.83,-1.59,-1.21,0,*7B
1505898232.16,59520,15.44,73372.0,3.81,-1.75,-1.59,0,*72
1505898233.4,59521,15.38,73374.5,3.83,-1.55,-1.43,0,*78
1505898234.64,59522,15.38,73372.0,3.85,-2.07,-2.07,0,*7A
1505898235.91,59523,15.44,73372.8,3.83,-1.99,-1.99,0,*7D
1505898237.12,59524,15.38,73372.5,3.83,-2.23,-2.39,0,*71
1505898238.33,59525,15.38,73368.3,3.83,-2.23,-2.23,0,*7B
1505898239.57,59526,15.38,73372.3,3.83,-2.31,-2.59,0,*76
1505898240.81,59527,15.38,73370.0,3.83,-2.11,-2.39,0,*73
1505898242.01,59528,15.44,73372.5,3.83,-2.83,-3.19,0,*74
1505898243.24,59529,15.38,73372.8,3.83,-3.19,-3.63,0,*7A
1505898244.48,59530,15.38,73372.0,3.83,-2.75,-3.35,0,*7A
1505898245.71,59531,15.38,73374.3,3.83,-2.59,-3.27,0,*76
1505898246.95,59532,15.38,73372.8,3.83,-2.95,-3.63,0,*75
1505898248.16,59533,15.38,73372.5,3.83,-3.11,-3.87,0,*73
1505898249.4,59534,15.38,73372.3,3.83,-3.47,-4.25,0,*78
1505898250.63,59535,15.38,73370.0,3.83,-4.05,-4.93,0,*75
1505898251.83,59536,15.38,73374.0,3.85,-3.75,-4.65,0,*79
1505898253.05,59537,15.38,73374.0,3.85,-3.51,-4.41,0,*78
1505898254.29,59538,15.38,73374.3,3.85,-3.63,-4.73,0,*77
1505898255.53,59539,15.38,73374.3,3.85,-3.63,-4.81,0,*7B
1505898256.73,59540,15.38,73374.0,3.85,-3.39,-4.53,0,*75
1505898257.92,59541,15.38,73376.0,3.85,-3.19,-4.29,0,*7B
1505898259.11,59542,15.38,73370.3,3.89,-3.15,-4.09,0,*7A
1505898260.3,59543,15.38,73374.8,3.89,-3.35,-4.09,0,*79
1505898261.49,59544,15.38,73374.0,3.89,-3.19,-3.79,0,*70
1505898262.7,59545,15.38,73372.5,3.93,-3.55,-4.05,0,*7E
1505898263.91,59546,15.38,73372.5,3.93,-3.27,-3.51,0,*7E
1505898265.12,59547,15.38,73372.5,3.93,-3.63,-3.79,0,*75
1505898266.32,59548,15.38,73372.0,3.93,-3.79,-3.91,0,*77
1505898267.53,59549,15.38,73374.3,3.95,-3.75,-3.75,0,*76
1505898268.77,59550,15.38,73372.5,3.95,-3.71,-3.83,0,*73
1505898270.03,59551,15.38,73374.8,3.95,-3.59,-3.59,0,*7F
1505898271.29,59552,15.38,73368.8,3.97,-3.71,-3.71,0,*7E
1505898272.48,59553,15.38,73370.5,3.99,-3.87,-4.09,0,*70
1505898273.7,59554,15.44,73372.8,3.97,-4.13,-4.61,0,*7D
1505898274.93,59555,15.44,73372.3,3.99,-4.57,-5.03,0,*77
1505898276.15,59556,15.38,73370.8,3.99,-4.45,-5.11,0,*74
1505898277.37,59557,15.38,73370.8,3.99,-4.37,-5.23,0,*71
1505898278.6,59558,15.38,73370.0,3.99,-3.95,-4.89,0,*70
1505898279.85,59559,15.38,73370.0,4.01,-3.95,-4.89,0,*77
1505898281.1,59560,15.38,73372.8,4.01,-4.09,-4.89,0,*7F
1505898282.34,59561,15.44,73376.0,4.01,-3.55,-4.33,0,*71
1505898283.54,59562,15.38,73372.5,4.03,-3.79,-4.53,0,*78
1505898284.75,59563,15.38,73372.5,4.03,-4.17,-4.85,0,*7D
1505898285.97,59564,15.38,73372.5,4.03,-4.05,-4.81,0,*7D
1505898287.2,59565,15.38,73372.5,4.03,-4.77,-5.61,0,*76
1505898288.44,59566,15.38,73372.5,4.05,-4.69,-5.39,0,*71
1505898289.68,59567,15.38,73374.3,4.05,-4.69,-5.39,0,*70
1505898290.94,59568,15.38,73370.3,4.05,-4.93,-5.69,0,*7F
1505898292.17,59569,15.44,73374.8,4.05,-4.69,-5.47,0,*77
1505898293.39,59570,15.44,73372.5,4.07,-4.57,-5.69,0,*7C
1505898294.61,59571,15.38,73368.3,4.05,-4.29,-5.47,0,*7A
1505898295.86,59572,15.38,73370.0,4.07,-4.01,-5.31,0,*70
1505898297.1,59573,15.38,73368.8,4.07,-3.47,-4.77,0,*77
1505898298.3,59574,15.44,73374.3,4.07,-3.27,-4.53,0,*70
1505898299.49,59575,15.38,73374.5,4.07,-3.03,-4.29,0,*7A
1505898300.69,59576,15.38,73374.0,4.07,-2.99,-4.13,0,*72
1505898301.91,59577,15.44,73374.5,4.11,-3.43,-4.53,0,*76
1505898303.15,59578,15.44,73372.5,4.09,-3.55,-4.65,0,*72
1505898304.37,59579,15.38,73374.3,4.09,-3.31,-4.53,0,*74
1505898305.6,59580,15.38,73372.0,4.09,-3.35,-4.65,0,*73
1505898306.87,59581,15.38,73374.3,4.09,-3.71,-5.03,0,*73
1505898308.1,59582,15.38,73374.3,4.09,-3.87,-5.51,0,*7E
1505898309.32,59583,15.38,73370.0,4.11,-4.13,-5.89,0,*79
1505898310.53,59584,15.38,73372.5,4.09,-4.65,-6.69,0,*7B
1505898311.71,59585,15.38,73372.5,4.11,-4.49,-6.47,0,*71
1505898312.93,59586,15.38,73372.0,4.09,-4.65,-6.69,0,*79
1505898314.12,59587,15.38,73374.0,4.11,-4.53,-6.81,0,*72
1505898315.33,59588,15.38,73372.8,4.11,-4.77,-7.15,0,*77
1505898316.57,59589,15.38,73372.8,4.11,-5.27,-8.07,0,*7E
1505898317.78,59590,15.38,73370.0,4.11,-5.89,-8.59,0,*79
1505898319.02,59591,15.38,73372.5,4.09,-5.11,-7.53,0,*75
1505898320.23,59592,15.38,73368.5,4.11,-4.53,-6.93,0,*75
1505898321.44,59593,15.38,73370.5,4.09,-4.45,-6.59,0,*7C
1505898322.63,59594,15.38,73370.0,4.11,-4.45,-6.59,0,*72
1505898323.84,59595,15.38,73368.8,4.11,-4.61,-6.93,0,*73
1505898325.09,59596,15.38,73372.8,4.13,-4.69,-7.01,0,*70
1505898326.33,59597,15.38,73370.0,4.13,-5.11,-7.19,0,*76
1505898327.57,59598,15.38,73370.3,4.11,-5.65,-7.77,0,*70
1505898328.8,59599,15.38,73374.3,4.11,-5.93,-8.21,0,*74
1505898330.04,59600,15.44,73378.5,4.11,-5.23,-7.65,0,*73
1505898331.28,59601,15.38,73372.0,4.09,-5.81,-8.33,0,*7F
1505898332.52,59602,15.38,73370.8,4.09,-5.93,-8.59,0,*73
1505898333.74,59603,15.38,73374.0,4.11,-6.31,-9.11,0,*7D
1505898334.93,59604,15.38,73370.8,4.11,-6.85,-9.93,0,*7F
1505898336.17,59605,15.38,73374.0,4.09,-6.13,-9.53,0,*74
1505898337.42,59606,15.38,73372.5,4.11,-5.89,-9.53,0,*7E
1505898338.67,59607,15.38,73374.3,4.09,-5.89,-9.79,0,*7E
1505898339.87,59608,15.38,73372.5,4.11,-6.01,-10.19,0,*45
1505898341.1,59609,15.38,73374.0,4.09,-6.05,-10.19,0,*49
1505898342.3,59610,15.44,73376.3,4.11,-6.13,-10.35,0,*41
1505898343.56,59611,15.38,73374.5,4.09,-6.31,-10.63,0,*4A
1505898344.75,59612,15.38,73370.5,4.11,-6.05,-10.31,0,*40
1505898345.95,59613,15.38,73374.8,4.11,-6.05,-10.35,0,*45
1505898347.15,59614,15.38,73370.5,4.11,-6.31,-10.49,0,*4E
1505898348.35,59615,15.38,73370.3,4.11,-6.13,-10.45,0,*43
1505898349.61,59616,15.38,73374.8,4.11,-6.19,-10.67,0,*4A
1505898350.83,59617,15.38,73372.3,4.13,-6.51,-11.11,0,*45
1505898352.05,59618,15.38,73374.0,4.13,-6.31,-11.11,0,*4C
1505898353.32,59619,15.38,73374.0,4.13,-5.73,-10.75,0,*4B
1505898354.59,59620,15.38,73372.0,4.13,-5.61,-10.71,0,*46
1505898355.84,59621,15.38,73372.5,4.13,-5.85,-11.23,0,*4B
1505898357.11,59622,15.38,73372.0,4.13,-5.77,-11.29,0,*4F
1505898358.37,59623,15.38,73372.0,4.13,-5.31,-10.97,0,*48
1505898359.6,59624,15.38,73374.0,4.17,-5.11,-10.85,0,*4A
1505898360.86,59625,15.38,73374.5,4.17,-5.07,-10.93,0,*4B
1505898362.13,59626,15.38,73372.0,4.17,-4.89,-10.71,0,*43
1505898363.36,59627,15.38,73374.5,4.17,-4.77,-10.85,0,*48
1505898364.58,59628,15.38,73374.5,4.19,-5.19,-11.19,0,*44
1505898365.79,59629,15.38,73374.3,4.19,-4.89,-11.11,0,*45
1505898367.01,59630,15.38,73372.3,4.19,-4.89,-11.19,0,*45
1505898368.23,59631,15.38,73374.5,4.21,-4.65,-11.01,0,*44
1505898369.47,59632,15.38,73372.0,4.21,-4.61,-11.07,0,*45
1505898370.66,59633,15.38,73374.3,4.23,-4.61,-11.15,0,*45
1505898371.85,59634,15.38,73372.0,4.23,-4.53,-11.15,0,*43
1505898373.09,59635,15.38,73372.5,4.25,-4.37,-10.63,0,*46
1505898374.35,59636,15.38,73372.0,4.25,-4.21,-10.63,0,*42
1505898375.54,59637,15.38,73372.5,4.27,-4.05,-10.19,0,*4A
1505898376.77,59638,15.38,73376.0,4.29,-3.75,-9.61,0,*7C
1505898377.99,59639,15.38,73374.8,4.29,-3.75,-9.41,0,*7F
1505898379.24,59640,15.38,73374.8,4.31,-3.63,-8.85,0,*76
1505898380.47,59641,15.38,73372.8,4.33,-3.59,-8.85,0,*7C
1505898381.68,59642,15.38,73372.0,4.33,-3.59,-8.59,0,*7E
1505898382.92,59643,15.38,73372.0,4.35,-3.43,-8.25,0,*79
1505898384.16,59644,15.38,73370.8,4.35,-3.47,-8.29,0,*76
1505898385.39,59645,15.38,73374.3,4.39,-3.47,-8.29,0,*7B
1505898386.63,59646,15.38,73372.0,4.41,-3.51,-7.99,0,*74
1505898387.86,59647,15.38,73374.0,4.43,-2.95,-7.11,0,*7E
1505898389.07,59648,15.38,73372.8,4.43,-2.87,-6.89,0,*72
1505898390.25,59649,15.38,73372.5,4.45,-2.99,-6.85,0,*76
1505898391.49,59650,15.38,73372.0,4.47,-2.67,-6.43,0,*77
1505898392.73,59651,15.38,73372.5,4.47,-2.59,-6.39,0,*76
1505898393.97,59652,15.38,73372.3,4.51,-2.67,-6.51,0,*71
1505898395.2,59653,15.38,73374.8,4.51,-2.87,-6.63,0,*7F
1505898396.4,59654,15.38,73370.0,4.53,-2.99,-6.77,0,*70
1505898397.61,59655,15.38,73372.0,4.55,-3.07,-6.73,0,*75
1505898398.79,59656,15.38,73372.0,4.57,-3.03,-6.69,0,*7B
1505898399.98,59657,15.38,73372.0,4.61,-2.91,-6.51,0,*7E
1505898401.18,59658,15.38,73374.0,4.61,-3.15,-6.59,0,*74
1505898402.4,59659,15.38,73372.8,4.63,-3.19,-6.77,0,*77
1505898403.61,59660,15.38,73374.5,4.65,-3.51,-7.15,0,*72
1505898404.82,59661,15.38,73374.0,4.65,-4.17,-7.73,0,*76
1505898406.04,59662,15.38,73374.3,4.67,-4.37,-7.83,0,*7A
1505898407.25,59663,15.38,73372.8,4.69,-4.09,-7.39,0,*79
1505898408.47,59664,15.38,73370.8,4.69,-3.87,-7.35,0,*73
1505898409.66,59665,15.38,73370.8,4.69,-4.13,-7.49,0,*73
1505898410.85,59666,15.38,73374.0,4.73,-4.17,-7.49,0,*7F
1505898412.04,59667,15.38,73374.3,4.73,-4.57,-7.87,0,*78
1505898413.23,59668,15.38,73372.5,4.73,-4.65,-7.83,0,*72
1505898414.44,59669,15.38,73372.0,4.77,-4.53,-7.69,0,*76
1505898415.68,59670,15.38,73372.0,4.75,-4.53,-7.43,0,*74
1505898416.9,59671,15.38,73374.3,4.77,-4.29,-7.27,0,*78
1505898418.09,59672,15.38,73374.0,4.77,-4.37,-7.15,0,*75
1505898419.31,59673,15.38,73374.0,4.77,-4.61,-7.31,0,*71
1505898420.53,59674,15.38,73374.8,4.81,-4.01,-6.55,0,*7A
1505898421.75,59675,15.38,73374.3,4.81,-4.01,-6.47,0,*78
1505898422.93,59676,15.38,73372.5,4.85,-4.45,-6.77,0,*7C
1505898424.15,59677,15.38,73372.0,4.85,-3.63,-6.01,0,*7F
1505898425.39,59678,15.38,73368.5,4.87,-3.67,-6.01,0,*76
1505898426.62,59679,15.38,73372.5,4.87,-3.67,-6.09,0,*7F
1505898427.89,59680,15.38,73368.3,4.91,-3.63,-6.19,0,*7B
1505898429.12,59681,15.44,73372.8,4.93,-3.95,-6.47,0,*7A
1505898430.32,59682,15.38,73370.3,4.95,-3.79,-6.39,0,*74
1505898431.52,59683,15.38,73372.0,4.95,-3.75,-6.35,0,*75
1505898432.74,59684,15.38,73368.8,4.95,-4.41,-6.97,0,*7A
1505898433.98,59685,15.38,73374.0,4.97,-4.99,-7.61,0,*74
1505898435.2,59686,15.38,73372.0,4.97,-5.39,-8.37,0,*70
1505898436.42,59687,15.38,73372.3,4.97,-5.51,-8.37,0,*7F
1505898437.66,59688,15.38,73370.5,4.93,-4.99,-7.39,0,*70
1505898438.87,59689,15.38,73372.3,4.95,-4.93,-7.19,0,*7F
1505898440.09,59690,15.44,73372.5,4.93,-4.49,-6.59,0,*73
1505898441.28,59691,15.38,73372.8,4.95,-4.41,-6.13,0,*72
1505898442.47,59692,15.38,73372.3,4.95,-4.61,-6.09,0,*78
1505898443.66,59693,15.38,73374.8,4.95,-4.17,-5.35,0,*74
1505898444.88,59694,15.38,73370.0,4.95,-3.51,-4.29,0,*7A
1505898446.12,59695,15.38,73374.0,4.97,-2.79,-3.43,0,*79
1505898447.33,59696,15.38,73372.3,4.97,-2.27,-2.95,0,*7B
1505898448.55,59697,15.38,73370.8,4.97,-2.31,-2.95,0,*7D
1505898449.74,59698,15.38,73368.5,4.99,-2.15,-2.79,0,*78
1505898450.96,59699,15.38,73370.8,4.99,-2.47,-2.99,0,*70
1505898452.2,59700,15.44,73372.3,5.01,-1.91,-2.35,0,*7F
1505898453.47,59701,15.38,73374.0,5.01,-1.99,-2.55,0,*70
1505898454.74,59702,15.38,73374.3,5.01,-1.91,-2.47,0,*78
1505898455.95,59703,15.44,73376.3,5.03,-1.91,-2.35,0,*7E
1505898457.17,59704,15.44,73376.3,5.07,-2.15,-2.63,0,*71
1505898458.39,59705,15.38,73370.5,5.07,-2.27,-2.63,0,*71
1505898459.62,59706,15.38,73372.3,5.09,-1.91,-2.19,0,*7F
1505898460.86,59707,15.38,73374.0,5.09,-2.43,-2.67,0,*7B
1505898462.1,59708,15.44,73378.3,5.11,-2.51,-2.63,0,*7A
1505898463.31,59709,15.38,73374.0,5.11,-2.39,-2.59,0,*7C
1505898464.52,59710,15.38,73372.5,5.11,-2.11,-2.27,0,*77
1505898465.79,59711,15.38,73372.0,5.13,-2.11,-2.11,0,*71
1505898467.06,59712,15.38,73370.5,5.13,-2.07,-2.07,0,*72
1505898468.3,59713,15.38,73374.5,5.15,-2.07,-1.99,0,*71
1505898469.55,59714,15.38,73372.3,5.15,-2.11,-1.99,0,*71
1505898470.8,59715,15.38,73374.5,5.15,-2.63,-2.47,0,*75
1505898472.06,59716,15.38,73374.3,5.17,-2.03,-2.03,0,*72
1505898473.33,59717,15.44,73376.8,5.17,-1.95,-1.83,0,*74
1505898474.57,59718,15.38,73374.5,5.19,-1.83,-1.83,0,*72
1505898475.78,59719,15.38,73374.8,5.19,-2.19,-2.07,0,*7C
1505898477.0,59720,15.44,73376.5,5.19,-2.43,-2.51,0,*7A
1505898478.25,59721,15.38,73372.5,5.19,-2.55,-2.55,0,*78
1505898479.46,59722,15.38,73372.8,5.19,-2.51,-2.31,0,*7D
1505898480.68,59723,15.38,73374.8,5.19,-2.51,-2.43,0,*79
1505898481.86,59724,15.38,73372.0,5.19,-2.43,-2.27,0,*7F
1505898483.1,59725,15.44,73378.0,5.19,-2.07,-1.95,0,*74
1505898484.28,59726,15.38,73374.0,5.19,-1.67,-1.55,0,*7E
1505898485.5,59727,15.44,73376.8,5.21,-1.71,-1.71,0,*75
1505898486.74,59728,15.38,73372.3,5.21,-2.03,-2.23,0,*78
1505898488.0,59729,15.44,73376.0,5.21,-1.91,-2.11,0,*70
1505898489.22,59730,15.44,73376.8,5.23,-2.11,-2.35,0,*77
1505898490.46,59731,15.38,73374.5,5.23,-2.51,-2.67,0,*75
1505898491.67,59732,15.38,73374.0,5.25,-2.43,-2.59,0,*7E
1505898492.91,59733,15.38,73372.0,5.23,-1.87,-1.99,0,*7D
1505898494.14,59734,15.38,73374.3,5.25,-1.47,-1.67,0,*71
1505898495.35,59735,15.38,73372.8,5.29,-1.43,-1.71,0,*7F
1505898496.56,59736,15.44,73378.3,5.29,-1.63,-1.91,0,*70
1505898497.8,59737,15.38,73372.0,5.31,-1.55,-1.91,0,*7D
1505898499.03,59738,15.44,73376.8,5.31,-1.55,-1.95,0,*76
1505898500.25,59739,15.38,73374.3,5.31,-1.29,-1.55,0,*70
1505898501.49,59740,15.38,73372.3,5.33,-1.09,-1.39,0,*74
1505898502.73,59741,15.38,73374.8,5.33,-1.05,-1.35,0,*75
1505898503.96,59742,15.38,73374.3,5.35,-0.81,-1.13,0,*49
1505898505.17,59743,15.38,73372.3,5.37,-0.97,-1.25,0,*48
1505898506.39,59744,15.38,73372.5,5.37,-1.01,-1.33,0,*76
1505898507.6,59745,15.38,73372.0,5.37,-1.55,-1.83,0,*7D
1505898508.84,59746,15.38,73374.3,5.37,-1.83,-2.11,0,*7D
1505898510.05,59747,15.38,73374.3,5.35,-2.43,-2.79,0,*7F
1505898511.26,59748,15.44,73376.5,5.33,-1.91,-2.27,0,*71
1505898512.47,59749,15.38,73374.0,5.35,-2.15,-2.39,0,*76
1505898513.69,59750,15.38,73372.8,5.33,-2.03,-2.27,0,*70
1505898514.93,59751,15.44,73378.5,5.35,-1.79,-1.99,0,*7F